H1 CPF 2 NER 2025 8 4 9 216 01 glonass127 H2 1106403 9127 37869 2025 8 4 0 0 0 2025 8 7 23 45 0 900 1 1 0 0 0 1 H9 10 0 60891 0.00000 0 -9347137.307 19923029.796 -12876212.239 10 0 60891 900.00000 0 -10126081.795 21126006.759 -10081547.395 10 0 60891 1800.00000 0 -10609017.399 22091713.394 -7090947.535 10 0 60891 2700.00000 0 -10823367.071 22768776.340 -3962650.400 10 0 60891 3600.00000 0 -10806814.581 23114499.243 -757465.122 10 0 60891 4500.00000 0 -10605456.282 23096713.632 2462413.752 10 0 60891 5400.00000 0 -10271613.410 22695202.633 5634611.135 10 0 60891 6300.00000 0 -9861398.984 21902639.799 8697771.833 10 0 60891 7200.00000 0 -9432142.791 20725005.805 11592733.783 10 0 60891 8100.00000 0 -9039782.928 19181467.550 14263652.575 10 0 60891 9000.00000 0 -8736332.857 17303726.307 16659057.133 10 0 60891 9900.00000 0 -8567528.991 15134863.075 18732818.223 10 0 60891 10800.00000 0 -8570755.775 12727729.420 20445013.385 10 0 60891 11700.00000 0 -8773333.351 10142950.027 21762674.010 10 0 60891 12600.00000 0 -9191237.889 7446618.399 22660402.385 10 0 60891 13500.00000 0 -9828306.952 4707779.004 23120848.734 10 0 60891 14400.00000 0 -10675962.735 1995797.374 23135040.460 10 0 60891 15300.00000 0 -11713465.203 -622275.973 22702557.964 10 0 60891 16200.00000 0 -12908685.915 -3084241.697 21831553.658 10 0 60891 17100.00000 0 -14219372.403 -5335085.631 20538612.978 10 0 60891 18000.00000 0 -15594853.025 -7329015.945 18848458.588 10 0 60891 18900.00000 0 -16978114.127 -9031120.418 16793501.368 10 0 60891 19800.00000 0 -18308165.654 -10418575.446 14413244.280 10 0 60891 20700.00000 0 -19522598.803 -11481356.158 11753547.923 10 0 60891 21600.00000 0 -20560230.440 -12222416.969 8865769.289 10 0 60891 22500.00000 0 -21363724.287 -12657333.515 5805787.943 10 0 60891 23400.00000 0 -21882078.610 -12813419.164 2632936.664 10 0 60891 24300.00000 0 -22072874.588 -12728351.527 -591143.952 10 0 60891 25200.00000 0 -21904188.453 -12448365.434 -3803705.170 10 0 60891 26100.00000 0 -21356083.929 -12026087.835 -6942120.353 10 0 60891 27000.00000 0 -20421618.608 -11518106.077 -9945120.770 10 0 60891 27900.00000 0 -19107318.354 -10982373.251 -12754011.241 10 0 60891 28800.00000 0 -17433096.459 -10475562.012 -15313839.752 10 0 60891 29700.00000 0 -15431618.256 -10050481.183 -17574495.890 10 0 60891 30600.00000 0 -13147135.955 -9753667.163 -19491714.329 10 0 60891 31500.00000 0 -10633841.629 -9623254.924 -21027961.532 10 0 60891 32400.00000 0 -7953807.344 -9687221.301 -22153186.530 10 0 60891 33300.00000 0 -5174599.376 -9962077.115 -22845419.758 10 0 60891 34200.00000 0 -2366667.651 -10452065.013 -23091207.356 10 0 60891 35100.00000 0 399378.876 -11148897.739 -22885872.179 10 0 60891 36000.00000 0 3055495.550 -12032047.958 -22233596.635 10 0 60891 36900.00000 0 5538808.989 -13069576.679 -21147326.464 10 0 60891 37800.00000 0 7793998.191 -14219463.984 -19648498.473 10 0 60891 38700.00000 0 9775350.391 -15431384.145 -17766598.986 10 0 60891 39600.00000 0 11448406.683 -16648848.248 -15538563.381 10 0 60891 40500.00000 0 12791130.470 -17811621.934 -13008030.259 10 0 60891 41400.00000 0 13794552.489 -18858314.576 -10224466.702 10 0 60891 42300.00000 0 14462868.720 -19729029.378 -7242183.518 10 0 60891 43200.00000 0 14812990.786 -20367961.950 -4119261.345 10 0 60891 44100.00000 0 14873571.593 -20725837.813 -916409.872 10 0 60891 45000.00000 0 14683550.797 -20762086.787 2304216.551 10 0 60891 45900.00000 0 14290284.459 -20446663.945 5480223.396 10 0 60891 46800.00000 0 13747340.022 -19761442.287 8550177.147 10 0 60891 47700.00000 0 13112050.908 -18701120.498 11454780.399 10 0 60891 48600.00000 0 12442934.229 -17273609.650 14137999.305 10 0 60891 49500.00000 0 11797079.742 -15499884.253 16548123.133 10 0 60891 50400.00000 0 11227618.636 -13413304.949 18638737.528 10 0 60891 51300.00000 0 10781376.576 -11058441.506 20369594.951 10 0 60891 52200.00000 0 10496807.367 -8489444.606 21707367.927 10 0 60891 53100.00000 0 10402291.730 -5768032.812 22626272.786 10 0 60891 54000.00000 0 10514870.663 -2961176.142 23108553.834 10 0 60891 54900.00000 0 10839465.217 -138569.514 23144820.057 10 0 60891 55800.00000 0 11368614.967 2630002.397 22734228.600 10 0 60891 56700.00000 0 12082746.667 5277303.015 21884511.550 10 0 60891 57600.00000 0 12950963.290 7741178.261 20611844.707 10 0 60891 58500.00000 0 13932322.645 9966884.995 18940559.440 10 0 60891 59400.00000 0 14977554.750 11909118.800 16902701.056 10 0 60891 60300.00000 0 16031148.943 13533657.880 14537439.699 10 0 60891 61200.00000 0 17033725.941 14818554.721 11890342.439 10 0 60891 62100.00000 0 17924597.535 15754825.142 9012517.918 10 0 60891 63000.00000 0 18644407.787 16346604.524 5959647.671 10 0 60891 63900.00000 0 19137745.006 16610762.870 2790921.028 10 0 60891 64800.00000 0 19355613.873 16575992.953 -432107.056 10 0 60891 65700.00000 0 19257661.733 16281408.170 -3646713.530 10 0 60891 66600.00000 0 18814062.533 15774707.941 -6790236.552 10 0 60891 67500.00000 0 18006975.637 15109987.526 -9801311.606 10 0 60891 68400.00000 0 16831514.343 14345285.011 -12621088.750 10 0 60891 69300.00000 0 15296179.694 13539970.264 -15194405.081 10 0 60891 70200.00000 0 13422738.091 12752088.062 -17470887.279 10 0 60891 71100.00000 0 11245545.254 12035770.108 -19405960.303 10 0 60891 72000.00000 0 8810343.258 11438827.967 -20961740.328 10 0 60891 72900.00000 0 6172580.305 11000631.256 -22107792.644 10 0 60891 73800.00000 0 3395323.706 10750363.023 -22821738.283 10 0 60891 74700.00000 0 546854.284 10705727.682 -23089696.631 10 0 60891 75600.00000 0 -2301955.939 10872167.093 -22906555.078 10 0 60891 76500.00000 0 -5080371.710 11242617.960 -22276060.638 10 0 60891 77400.00000 0 -7720512.778 11797820.217 -21210732.466 10 0 60891 78300.00000 0 -10159947.915 12507161.948 -19731598.101 10 0 60891 79200.00000 0 -12344055.985 13330023.325 -17867760.045 10 0 60891 80100.00000 0 -14228055.798 14217560.558 -15655802.858 10 0 60891 81000.00000 0 -15778621.138 15114852.211 -13139054.170 10 0 60891 81900.00000 0 -16975015.538 15963315.106 -10366715.920 10 0 60891 82800.00000 0 -17809702.062 16703285.951 -7392884.611 10 0 60891 83700.00000 0 -18288405.971 17276658.472 -4275481.335 10 0 60891 84600.00000 0 -18429631.318 17629464.102 -1075113.784 10 0 60891 85500.00000 0 -18263655.432 17714287.468 2146106.538 10 0 60892 0.00000 0 -17831047.013 17492415.627 5325768.090 10 0 60892 900.00000 0 -17180772.631 16935631.648 8402362.343 10 0 60892 1800.00000 0 -16367973.872 16027579.133 11316459.025 10 0 60892 2700.00000 0 -15451508.867 14764641.742 14011837.570 10 0 60892 3600.00000 0 -14491362.061 13156302.680 16436550.255 10 0 60892 4500.00000 0 -13546029.959 11224970.278 18543900.132 10 0 60892 5400.00000 0 -12669990.957 9005277.550 20293316.938 10 0 60892 6300.00000 0 -11911363.156 6542884.701 21651116.440 10 0 60892 7200.00000 0 -11309845.946 3892833.387 22591130.832 10 0 60892 8100.00000 0 -10895029.268 1117519.212 23095199.987 10 0 60892 9000.00000 0 -10685139.457 -1715636.067 23153515.574 10 0 60892 9900.00000 0 -10686272.990 -4536719.222 22764812.174 10 0 60892 10800.00000 0 -10892149.852 -7275965.448 21936401.787 10 0 60892 11700.00000 0 -11284397.485 -9866397.450 20684050.361 10 0 60892 12600.00000 0 -11833354.868 -12246357.185 19031697.256 10 0 60892 13500.00000 0 -12499365.230 -14361827.560 17011021.018 10 0 60892 14400.00000 0 -13234505.772 -16168449.095 14660857.319 10 0 60892 15300.00000 0 -13984684.447 -17633148.148 12026477.609 10 0 60892 16200.00000 0 -14692018.097 -18735308.451 9158739.708 10 0 60892 17100.00000 0 -15297393.706 -19467435.830 6113124.330 10 0 60892 18000.00000 0 -15743105.768 -19835286.489 2948674.283 10 0 60892 18900.00000 0 -15975458.494 -19857451.432 -273144.389 10 0 60892 19800.00000 0 -15947221.834 -19564412.417 -3489637.756 10 0 60892 20700.00000 0 -15619835.405 -18997107.492 -6638112.309 10 0 60892 21600.00000 0 -14965264.260 -18205065.422 -9657111.351 10 0 60892 22500.00000 0 -13967424.575 -17244187.420 -12487633.751 10 0 60892 23400.00000 0 -12623115.384 -16174270.291 -15074309.200 10 0 60892 24300.00000 0 -10942413.520 -15056376.939 -17366504.726 10 0 60892 25200.00000 0 -8948512.048 -13950167.191 -19319338.489 10 0 60892 26100.00000 0 -6677006.641 -12911304.057 -20894578.849 10 0 60892 27000.00000 0 -4174658.435 -11989047.354 -22061409.249 10 0 60892 27900.00000 0 -1497684.656 -11224138.546 -22797042.572 10 0 60892 28800.00000 0 1290351.069 -10647067.835 -23087172.037 10 0 60892 29700.00000 0 4120959.540 -10276797.745 -22926249.500 10 0 60892 30600.00000 0 6923355.434 -10119997.317 -22317585.899 10 0 60892 31500.00000 0 9627184.052 -10170818.691 -21273272.569 10 0 60892 32400.00000 0 12165230.237 -10411224.151 -19813926.068 10 0 60892 33300.00000 0 14475995.484 -10811847.848 -17968262.934 10 0 60892 34200.00000 0 16506035.388 -11333353.373 -15772514.369 10 0 60892 35100.00000 0 18211960.360 -11928227.189 -13269694.132 10 0 60892 36000.00000 0 19562017.384 -12542929.561 -10508735.793 10 0 60892 36900.00000 0 20537188.830 -13120309.761 -7543518.030 10 0 60892 37800.00000 0 21131765.215 -13602181.654 -4431798.665 10 0 60892 38700.00000 0 21353371.261 -13931949.657 -1234079.559 10 0 60892 39600.00000 0 21222447.710 -14057173.674 1987574.451 10 0 60892 40500.00000 0 20771214.054 -13931965.001 5170739.041 10 0 60892 41400.00000 0 20042158.813 -13519113.034 8253832.922 10 0 60892 42300.00000 0 19086123.082 -12791854.585 11177296.530 10 0 60892 43200.00000 0 17960059.351 -11735212.989 13884725.130 10 0 60892 44100.00000 0 16724560.154 -10346852.407 16323936.023 10 0 60892 45000.00000 0 15441259.785 -8637412.868 18447951.171 10 0 60892 45900.00000 0 14170216.635 -6630312.859 20215878.566 10 0 60892 46800.00000 0 12967383.760 -4361027.824 21593677.714 10 0 60892 47700.00000 0 11882271.088 -1875873.902 22554796.721 10 0 60892 48600.00000 0 10955894.500 769654.075 23080670.672 10 0 60892 49500.00000 0 10219095.127 3512923.679 23161073.200 10 0 60892 50400.00000 0 9691297.327 6286503.363 22794315.273 10 0 60892 51300.00000 0 9379756.105 9020704.719 21987287.488 10 0 60892 52200.00000 0 9279325.234 11646226.568 20755344.376 10 0 60892 53100.00000 0 9372756.443 14096794.412 19122031.534 10 0 60892 54000.00000 0 9631518.621 16311688.368 17118658.827 10 0 60892 54900.00000 0 10017104.760 18238056.461 14783725.401 10 0 60892 55800.00000 0 10482774.167 19832917.927 12162204.906 10 0 60892 56700.00000 0 10975659.079 21064773.037 9304702.045 10 0 60892 57600.00000 0 11439148.984 21914751.238 6266494.306 10 0 60892 58500.00000 0 11815453.489 22377247.915 3106475.481 10 0 60892 59400.00000 0 12048235.961 22460020.907 -113979.847 10 0 60892 60300.00000 0 12085206.107 22183740.432 -3332209.427 10 0 60892 61200.00000 0 11880560.221 21581009.192 -6485490.592 10 0 60892 62100.00000 0 11397163.381 20694892.256 -9512276.836 10 0 60892 63000.00000 0 10608378.064 19577017.702 -12353418.037 10 0 60892 63900.00000 0 9499458.255 18285327.988 -14953338.453 10 0 60892 64800.00000 0 8068446.502 16881577.591 -17261147.198 10 0 60892 65700.00000 0 6326532.662 15428683.941 -19231657.144 10 0 60892 66600.00000 0 4297856.388 13988045.359 -20826290.119 10 0 60892 67500.00000 0 2018759.651 12616941.374 -22013848.807 10 0 60892 68400.00000 0 -463480.528 11366127.194 -22771138.832 10 0 60892 69300.00000 0 -3092386.213 10277725.607 -23083427.911 10 0 60892 70200.00000 0 -5804406.444 9383506.405 -22944732.763 10 0 60892 71100.00000 0 -8531348.816 8703626.297 -22357928.321 10 0 60892 72000.00000 0 -11203011.638 8245882.084 -21334677.798 10 0 60892 72900.00000 0 -13749905.299 8005507.283 -19895186.052 10 0 60892 73800.00000 0 -16105947.973 7965518.838 -18067782.521 10 0 60892 74700.00000 0 -18211022.296 8097596.690 -15888343.544 10 0 60892 75600.00000 0 -20013286.169 8363456.180 -13399567.180 10 0 60892 76500.00000 0 -21471141.806 8716652.326 -10650116.554 10 0 60892 77400.00000 0 -22554782.198 9104736.902 -7693650.290 10 0 60892 78300.00000 0 -23247252.523 9471674.753 -4587760.588 10 0 60892 79200.00000 0 -23544984.934 9760415.378 -1392841.060 10 0 60892 80100.00000 0 -23457787.499 9915510.034 1829092.598 10 0 60892 81000.00000 0 -23008291.084 9885663.470 5015605.523 10 0 60892 81900.00000 0 -22230880.499 9626112.995 8105046.806 10 0 60892 82800.00000 0 -21170157.304 9100735.584 11037729.898 10 0 60892 83700.00000 0 -19879000.656 8283795.704 13757068.483 10 0 60892 84600.00000 0 -18416308.406 7161261.979 16210647.424 10 0 60892 85500.00000 0 -16844513.086 5731638.891 18351210.010 10 0 60893 0.00000 0 -15226975.937 4006279.952 20137544.574 10 0 60893 900.00000 0 -13625365.305 2009168.728 21535256.658 10 0 60893 1800.00000 0 -12097128.770 -223821.096 22517411.766 10 0 60893 2700.00000 0 -10693158.999 -2646160.024 23065041.510 10 0 60893 3600.00000 0 -9455750.207 -5202339.930 23167502.433 10 0 60893 4500.00000 0 -8416927.311 -7829928.005 22822682.453 10 0 60893 5400.00000 0 -7597215.871 -10461915.345 22037050.940 10 0 60893 6300.00000 0 -7004903.155 -13029266.202 20825550.802 10 0 60893 7200.00000 0 -6635821.139 -15463565.430 19211333.275 10 0 60893 8100.00000 0 -6473661.225 -17699657.190 17225338.568 10 0 60893 9000.00000 0 -6490808.998 -19678167.474 14905727.947 10 0 60893 9900.00000 0 -6649665.963 -21347806.828 12297175.560 10 0 60893 10800.00000 0 -6904404.914 -22667357.631 9450030.971 10 0 60893 11700.00000 0 -7203087.087 -23607262.341 6419366.131 10 0 60893 12600.00000 0 -7490053.439 -24150744.713 3263923.271 10 0 60893 13500.00000 0 -7708489.951 -24294414.854 44982.742 10 0 60893 14400.00000 0 -7803058.449 -24048330.232 -3174827.831 10 0 60893 15300.00000 0 -7722480.585 -23435507.521 -6332759.731 10 0 60893 16200.00000 0 -7421963.572 -22490903.645 -9367179.882 10 0 60893 17100.00000 0 -6865362.169 -21259907.313 -12218792.490 10 0 60893 18000.00000 0 -6026982.029 -19796403.796 -14831819.705 10 0 60893 18900.00000 0 -4892944.537 -18160494.538 -17155115.950 10 0 60893 19800.00000 0 -3462051.925 -16415968.567 -19143191.828 10 0 60893 20700.00000 0 -1746113.036 -14627633.786 -20757125.325 10 0 60893 21600.00000 0 230286.482 -12858622.490 -21965340.617 10 0 60893 22500.00000 0 2430561.583 -11167786.653 -22744237.801 10 0 60893 23400.00000 0 4807420.950 -9607294.493 -23078660.261 10 0 60893 24300.00000 0 7304621.561 -8220530.896 -22962190.183 10 0 60893 25200.00000 0 9859110.490 -7040390.739 -22397266.549 10 0 60893 26100.00000 0 12403462.993 -6088036.818 -21395123.989 10 0 60893 27000.00000 0 14868513.473 -5372173.657 -19975554.728 10 0 60893 27900.00000 0 17186067.867 -4888865.899 -18166499.709 10 0 60893 28800.00000 0 19291582.920 -4621906.386 -16003478.552 10 0 60893 29700.00000 0 21126699.708 -4543715.361 -13528871.318 10 0 60893 30600.00000 0 22641525.540 -4616729.536 -10791067.940 10 0 60893 31500.00000 0 23796569.586 -4795219.121 -7843503.811 10 0 60893 32400.00000 0 24564252.825 -5027453.106 -4743601.999 10 0 60893 33300.00000 0 24929931.365 -5258118.847 -1551644.078 10 0 60893 34200.00000 0 24892393.030 -5430891.979 1670407.291 10 0 60893 35100.00000 0 24463809.420 -5491047.140 4860110.588 10 0 60893 36000.00000 0 23669148.500 -5387999.124 7955748.997 10 0 60893 36900.00000 0 22545074.974 -5077667.848 10897512.402 10 0 60893 37800.00000 0 21138386.665 -4524568.613 13628635.933 10 0 60893 38700.00000 0 19504053.634 -3703541.192 16096474.585 10 0 60893 39600.00000 0 17702942.497 -2601046.652 18253495.056 10 0 60893 40500.00000 0 15799320.470 -1215978.846 20058167.902 10 0 60893 41400.00000 0 13858241.911 440042.554 21475745.177 10 0 60893 42300.00000 0 11942924.233 2342909.576 22478910.804 10 0 60893 43200.00000 0 10112219.904 4456784.829 23048293.155 10 0 60893 44100.00000 0 8418287.034 6735351.696 23172831.494 10 0 60893 45000.00000 0 6904552.866 9123506.194 22849990.107 10 0 60893 45900.00000 0 5604052.712 11559423.189 22085816.167 10 0 60893 46800.00000 0 4538211.921 13976914.504 20894839.625 10 0 60893 47700.00000 0 3716120.885 16307984.371 19299815.710 10 0 60893 48600.00000 0 3134333.387 18485479.194 17331313.037 10 0 60893 49500.00000 0 2777197.585 20445724.018 15027152.819 10 0 60893 50400.00000 0 2617707.270 22131037.657 12431707.324 10 0 60893 51300.00000 0 2618839.529 23492022.349 9595068.431 10 0 60893 52200.00000 0 2735324.539 24489532.056 6572099.872 10 0 60893 53100.00000 0 2915774.646 25096235.765 3421389.517 10 0 60893 54000.00000 0 3105084.045 25297708.232 204120.634 10 0 60893 54900.00000 0 3246998.039 25092999.785 -3017116.642 10 0 60893 55800.00000 0 3286742.643 24494658.444 -6179550.346 10 0 60893 56700.00000 0 3173601.722 23528200.778 -9221463.485 10 0 60893 57600.00000 0 2863330.147 22231051.531 -12083417.049 10 0 60893 58500.00000 0 2320297.770 20650995.196 -14709433.275 10 0 60893 59400.00000 0 1519270.026 18844204.041 -17048113.821 10 0 60893 60300.00000 0 446746.343 16872925.851 -19053668.664 10 0 60893 61200.00000 0 -898203.481 14802929.672 -20686833.325 10 0 60893 62100.00000 0 -2503642.993 12700818.609 -21915654.600 10 0 60893 63000.00000 0 -4345027.480 10631324.527 -22716127.934 10 0 60893 63900.00000 0 -6386007.362 8654700.263 -23072672.995 10 0 60893 64800.00000 0 -8579743.218 6824320.474 -22978437.742 10 0 60893 65700.00000 0 -10870676.871 5184592.875 -22435425.181 10 0 60893 66600.00000 0 -13196683.215 3769267.846 -21454440.942 10 0 60893 67500.00000 0 -15491511.225 2600216.730 -20054863.784 10 0 60893 68400.00000 0 -17687410.408 1686728.596 -18264244.926 10 0 60893 69300.00000 0 -19717831.260 1025352.664 -16117745.675 10 0 60893 70200.00000 0 -21520085.657 600289.979 -13657426.174 10 0 60893 71100.00000 0 -23037855.295 384314.400 -10931401.024 10 0 60893 72000.00000 0 -24223443.311 340180.496 -7992880.082 10 0 60893 72900.00000 0 -25039675.718 422455.516 -4899114.849 10 0 60893 73800.00000 0 -25461374.649 579695.104 -1710272.371 10 0 60893 74700.00000 0 -25476343.874 756868.473 1511740.294 10 0 60893 75600.00000 0 -25085827.954 897929.055 4704477.585 10 0 60893 76500.00000 0 -24304428.532 948421.332 7806159.442 10 0 60893 77400.00000 0 -23159483.927 858013.950 10756854.861 10 0 60893 78300.00000 0 -21689940.203 582853.138 13499623.075 10 0 60893 79200.00000 0 -19944762.498 87638.622 15981591.783 10 0 60893 80100.00000 0 -17980953.751 -652663.634 18154953.504 10 0 60893 81000.00000 0 -15861263.320 -1651542.264 19977863.047 10 0 60893 81900.00000 0 -13651679.933 -2910147.272 21415221.170 10 0 60893 82800.00000 0 -11418811.492 -4417015.318 22439331.543 10 0 60893 83700.00000 0 -9227258.251 -6148325.103 23030420.417 10 0 60893 84600.00000 0 -7137085.731 -8068673.245 23177010.503 10 0 60893 85500.00000 0 -5201499.523 -10132340.144 22876142.790 10 0 60894 0.00000 0 -3464816.165 -12284995.585 22133442.318 10 0 60894 900.00000 0 -1960811.410 -14465777.426 20963025.585 10 0 60894 1800.00000 0 -711515.549 -16609657.366 19387251.171 10 0 60894 2700.00000 0 273497.676 -18650002.449 17436315.095 10 0 60894 3600.00000 0 997296.249 -20521225.686 15147697.202 10 0 60894 4500.00000 0 1475241.382 -22161418.534 12565466.267 10 0 60894 5400.00000 0 1734118.213 -23514856.403 9739454.581 10 0 60894 6300.00000 0 1810780.432 -24534272.603 6724315.496 10 0 60894 7200.00000 0 1750364.089 -25182804.638 3578480.138 10 0 60894 8100.00000 0 1604144.502 -25435529.388 363032.111 10 0 60894 9000.00000 0 1427125.998 -25280520.184 -2859478.675 10 0 60894 9900.00000 0 1275466.440 -24719378.371 -6026259.869 10 0 60894 10800.00000 0 1203846.517 -23767213.977 -9075513.542 10 0 60894 11700.00000 0 1262897.072 -22452073.548 -11947660.502 10 0 60894 12600.00000 0 1496795.996 -20813837.058 -14586526.120 10 0 60894 13500.00000 0 1941139.625 -18902628.973 -16940462.273 10 0 60894 14400.00000 0 2621182.051 -16776809.786 -18963381.125 10 0 60894 15300.00000 0 3550520.121 -14500632.895 -20615678.286 10 0 60894 16200.00000 0 4730282.581 -12141666.377 -21865025.359 10 0 60894 17100.00000 0 6148859.928 -9768089.501 -22687014.898 10 0 60894 18000.00000 0 7782187.871 -7445979.256 -23065644.137 10 0 60894 18900.00000 0 9594573.218 -5236702.393 -22993627.612 10 0 60894 19800.00000 0 11540027.354 -3194523.540 -22472532.676 10 0 60894 20700.00000 0 13564050.489 -1364530.329 -21512735.837 10 0 60894 21600.00000 0 15605790.456 219037.735 -20133201.852 10 0 60894 22500.00000 0 17600483.895 1533987.731 -18361091.255 10 0 60894 23400.00000 0 19482075.785 2570850.809 -16231205.665 10 0 60894 24300.00000 0 21185906.042 3333013.090 -13785283.512 10 0 60894 25200.00000 0 22651349.567 3836297.857 -11071161.818 10 0 60894 26100.00000 0 23824298.615 4108020.337 -8141822.241 10 0 60894 27000.00000 0 24659383.704 4185558.611 -5054341.676 10 0 60894 27900.00000 0 25121840.964 4114504.404 -1868769.285 10 0 60894 28800.00000 0 25188949.254 3946474.675 1353047.030 10 0 60894 29700.00000 0 24850978.983 3736678.601 4548661.289 10 0 60894 30600.00000 0 24111615.285 3541343.952 7656233.757 10 0 60894 31500.00000 0 22987840.299 3415111.894 10615715.949 10 0 60894 32400.00000 0 21509281.669 3408509.671 13369994.343 10 0 60894 33300.00000 0 19717056.208 3565606.540 15865972.159 10 0 60894 34200.00000 0 17662157.971 3921950.069 18055570.190 10 0 60894 35100.00000 0 15403458.107 4502867.785 19896629.570 10 0 60894 36000.00000 0 13005398.991 5322203.891 21353701.434 10 0 60894 36900.00000 0 10535476.963 6381542.806 22398710.476 10 0 60894 37800.00000 0 8061615.954 7669951.520 23011481.693 10 0 60894 38700.00000 0 5649538.225 9164251.917 23180121.682 10 0 60894 39600.00000 0 3360238.388 10829812.900 22901248.136 10 0 60894 40500.00000 0 1247662.601 12621831.376 22180063.334 10 0 60894 41400.00000 0 -643313.214 14487051.494 21030269.681 10 0 60894 42300.00000 0 -2278524.020 16365853.622 19473827.665 10 0 60894 43200.00000 0 -3635708.030 18194629.321 17540558.968 10 0 60894 44100.00000 0 -4705201.406 19908346.297 15267599.978 10 0 60894 45000.00000 0 -5490105.708 21443198.746 12698713.609 10 0 60894 45900.00000 0 -6005919.910 22739233.963 9883469.978 10 0 60894 46800.00000 0 -6279650.816 23742845.968 6876309.295 10 0 60894 47700.00000 0 -6348437.471 24409031.130 3735503.068 10 0 60894 48600.00000 0 -6257745.935 24703309.680 522032.289 10 0 60894 49500.00000 0 -6059209.457 24603229.999 -2701596.338 10 0 60894 50400.00000 0 -5808204.890 24099389.428 -5872573.012 10 0 60894 51300.00000 0 -5561268.319 23195925.420 -8929021.704 10 0 60894 52200.00000 0 -5373460.581 21910453.173 -11811225.705 10 0 60894 53100.00000 0 -5295796.399 20273449.606 -14462815.955 10 0 60894 54000.00000 0 -5372848.705 18327107.561 -16831896.717 10 0 60894 54900.00000 0 -5640632.705 16123707.157 -18872084.223 10 0 60894 55800.00000 0 -6124862.369 13723572.447 -20543435.760 10 0 60894 56700.00000 0 -6839656.010 11192699.726 -21813249.046 10 0 60894 57600.00000 0 -7786748.081 8600158.105 -22656714.772 10 0 60894 58500.00000 0 -8955242.223 6015372.994 -23057408.475 10 0 60894 59400.00000 0 -10321916.906 3505407.922 -23007611.695 10 0 60894 60300.00000 0 -11852070.969 1132359.944 -22508456.211 10 0 60894 61200.00000 0 -13500872.816 -1049021.308 -21569889.117 10 0 60894 62100.00000 0 -15215155.304 -2993391.114 -20210460.473 10 0 60894 63000.00000 0 -16935579.258 -4666458.145 -18456939.044 10 0 60894 63900.00000 0 -18599072.865 -6046156.449 -16343765.301 10 0 60894 64800.00000 0 -20141442.758 -7123294.209 -13912354.187 10 0 60894 65700.00000 0 -21500045.696 -7901655.207 -11210263.117 10 0 60894 66600.00000 0 -22616407.692 -8397552.343 -8290243.310 10 0 60894 67500.00000 0 -23438680.318 -8638855.826 -5209194.666 10 0 60894 68400.00000 0 -23923831.458 -8663540.723 -2027045.958 10 0 60894 69300.00000 0 -24039479.601 -8517818.438 1194416.681 10 0 60894 70200.00000 0 -23765296.371 -8253933.642 4392749.564 10 0 60894 71100.00000 0 -23093920.502 -7927721.491 7506056.065 10 0 60894 72000.00000 0 -22031347.169 -7596029.145 10474173.048 10 0 60894 72900.00000 0 -20596778.490 -7314110.361 13239817.058 10 0 60894 73800.00000 0 -18821943.158 -7133102.160 15749669.585 10 0 60894 74700.00000 0 -16749914.789 -7097688.373 17955382.278 10 0 60894 75600.00000 0 -14433478.598 -7244046.513 19814484.931 10 0 60894 76500.00000 0 -11933113.901 -7598162.313 21291181.064 10 0 60894 77400.00000 0 -9314674.965 -8174580.987 22357018.032 10 0 60894 78300.00000 0 -6646864.384 -8975646.393 22991420.794 10 0 60894 79200.00000 0 -3998601.063 -9991259.579 23182080.640 10 0 60894 80100.00000 0 -1436388.917 -11199167.280 22925192.369 10 0 60894 81000.00000 0 978207.727 -12565769.747 22225535.616 10 0 60894 81900.00000 0 3190880.191 -14047416.379 21096398.247 10 0 60894 82800.00000 0 5156589.150 -15592137.875 19559342.068 10 0 60894 83700.00000 0 6841193.909 -17141745.692 17643813.471 10 0 60894 84600.00000 0 8222630.247 -18634214.237 15386604.126 10 0 60894 85500.00000 0 9291587.566 -20006248.871 12831169.488 99